Regional Weather Roundup
Issued by NWS

Home | Current Version | Previous Version | Text Only | Print | Product List | Glossary Off
Versions: 1 2 3 4 5 6 7 8 9 10 11 12 13 14 15 16 17 18 19 20 21 22 23 24 25 26 27 28 29 30 31 32 33 34 35 36 37 38 39 40 41 42 43 44 45 46 47 48 49 50

000
ASUS43 KDMX 041706
RWRIA

WEATHER ROUNDUP FOR IOWA
NATIONAL WEATHER SERVICE DES MOINES IA
1100 AM CST SUN DEC 04 2016

NOTE: "FAIR" INDICATES FEW OR NO CLOUDS BELOW 12,000 FEET WITH NO
SIGNIFICANT WEATHER AND/OR OBSTRUCTIONS TO VISIBILITY.

* - THESE STATIONS ARE NOT NWS STATIONS...THUS NOT UNDER NWS
QUALITY CONTROL.  THEY ALSO DO NOT REPORT WEATHER SUCH
AS PRECIPITATION OR FOG.

IAZ001>003-012>014-020>022-031>034-043>046-041800-
   NORTHWEST IOWA

CITY           SKY/WX    TMP DP  RH WIND       PRES   REMARKS
CARROLL *      CLOUDY    34  34 100 W12       29.94F WCI  25
CHEROKEE *     CLOUDY    35  34  96 SW10      29.90F WCI  27
DENISON *      CLOUDY    34  32  93 SW8       29.92F WCI  27
LE MARS *      SUNNY     39  32  75 SW9       29.92S WCI  33
ORANGE CITY *  SUNNY     37  34  87 SW9       29.89F WCI  31
SHELDON *      MOSUNNY   36  36 100 SW14      29.87S WCI  27
SIOUX CITY     SUNNY     41  32  70 W7        29.93F
SPENCER        CLOUDY    36  34  92 SW16      29.88F WCI  26
STORM LAKE *   CLOUDY    32  32 100 SW12      29.90F FOG     WCI  23
$$

IAZ055>058-069>071-079>083-090>094-041800-
   SOUTHWEST IOWA

CITY           SKY/WX    TMP DP  RH WIND       PRES   REMARKS
ATLANTIC *     CLOUDY    34  32  93 SW10      29.97S WCI  26
AUDUBON *      CLOUDY    34  30  86 SW6       29.95F WCI  29
CLARINDA *       N/A     36  36 100 W9        30.01S WCI  29
COUNCIL BLFS * CLOUDY    34  32  93 SW10      29.96F WCI  26
CRESTON *      FOG       34  34 100 W7        29.97F VSB 3/4 WCI  28
HARLAN  *      CLOUDY    34  34 100 SW8       29.99F WCI  27
LAMONI         CLOUDY    33  33 100 SW7       29.97F WCI  27
RED OAK *      CLOUDY    36  34  93 W8        29.99S WCI  29
SHENANDOAH *   CLOUDY    36  34  93 W9G16     30.01S WCI  29
$$

IAZ047>049-059>061-072>074-084-041800-
   CENTRAL IOWA

CITY           SKY/WX    TMP DP  RH WIND       PRES   REMARKS
AMES           CLOUDY    33  33 100 SW9       29.95F FOG     WCI  25
ANKENY *       CLOUDY    34 N/A N/A S8        29.97F WCI  27
BOONE *        FOG       34  34 100 SW9       29.93F VSB 1/4 WCI  26
CHARITON *       N/A     34  32  93 S7        29.97F WCI  28
DES MOINES     CLOUDY    35  33  92 SW7       29.97F WCI  29
GRINNELL*      LGT SNOW  33  32  98 S7        29.98S WCI  26
KNOXVILLE *    LGT SNOW  32  32 100 S7        29.96F WCI  26
MARSHALLTOWN   LGT SNOW  33  33 100 S8        29.95F VSB 1   WCI  26
NEWTON *       FOG       32  32 100 S9        29.96F VSB 3/4 WCI  24
PELLA *        LGT SNOW  33  32  97 S6        29.99F WCI  27
PERRY *        CLOUDY    34  34 100 SW7       29.96F FOG     WCI  28
$$

IAZ004>006-015-016-023>025-035-036-041800-
   NORTH CENTRAL IOWA

CITY           SKY/WX    TMP DP  RH WIND       PRES   REMARKS
ALGONA *       CLOUDY    36  32  87 SW13      29.90F WCI  27
CLARION *      FOG       34  34 100 SW12      29.92F VSB<1/4 WCI  25
ESTHERVILLE    CLOUDY    34  33  96 SW14      29.87F WCI  25
FORT DODGE *   CLOUDY    34  30  86 SW9       29.93F WCI  26
MASON CITY     FOG       33  33 100 SW12      29.92F VSB 1/2 WCI  24
FOREST CITY *  FOG       32  32 100 SW9       29.89F VSB 1/2 WCI  24
WEBSTER CITY * CLOUDY    34  34 100 SW9       29.91F FOG     WCI  26
IOWA FALLS *   CLOUDY    34  33  95 SW9       29.94F FOG     WCI  27
$$

IAZ007>011-017>019-026>030-037>042-050>054-066-041800-
   NORTHEAST IOWA

CITY           SKY/WX    TMP DP  RH WIND       PRES   REMARKS
CEDAR RAPIDS   SNOW      32  32 100 S7        29.98F VSB 1/2 WCI  26
CHARLES CITY * LGT SNOW  34  34 100 S13       29.93F VSB 1   WCI  25
CLINTON *      LGT SNOW  31  30  96 SE16      30.01F VSB 3/4 WCI  20
DECORAH *      LGT SNOW  32  30  93 S12G18    29.93F VSB 3/4 WCI  23
DUBUQUE        LGT SNOW  30  28  92 S15       29.99F VSB 1   WCI  19
MONTICELLO *   SNOW      32  30  93 SE9       29.99F VSB 1/2 WCI  24
OELWEIN *      SNOW      32  32 100 S15       29.95F VSB 1/4 WCI  22
WATERLOO       LGT SNOW  33  32  96 S10       29.95F FOG     WCI  25
$$

IAZ064-065-067-068-078-041800-
   EAST CENTRAL IOWA

CITY           SKY/WX    TMP DP  RH WIND       PRES   REMARKS
DAVENPORT      SNOW      31  30  96 SE12      30.01F VSB 1/2 WCI  22
IOWA CITY      SNOW      33  32  96 S9        30.01F VSB 1/2 WCI  25
MUSCATINE *    SNOW      34  32  93 SE8       30.01F VSB 1/4 WCI  27
QUAD CITIES    HVY SNOW  32  30  92 SE8       30.00F VSB 1/4 WCI  25
$$

IAZ062-063-075>077-085>089-095>099-041800-
   SOUTHEAST IOWA

CITY           SKY/WX    TMP DP  RH WIND       PRES   REMARKS
BURLINGTON     SNOW      32  32 100 SE7       30.00F VSB 1/2 WCI  26
FAIRFIELD *    FOG       32  32 100 S10       29.98F VSB 1/2 WCI  24
FORT MADISON * SNOW      34  32  93 E5        30.00F VSB 1/4 WCI  30
KEOKUK *       SNOW      34  32  93 SE6       29.99F VSB 1/2 WCI  29
OSKALOOSA *    LGT SNOW  32  32  99 S6        29.99F WCI  27
CENTERVILLE *  FLURRIES  32  32 100 CALM      30.00F
OTTUMWA        LGT SNOW  33  31  92 S7        29.98F VSB 1   WCI  27
WASHINGTON *   SNOW      32  32 100 S12       29.99F VSB 1/4 WCI  23
$$

ABBREVIATIONS USED IN REMARKS
   TC - TEMPERATURES IN CELSIUS
  WCI - WIND CHILL INDEX
   HX - HEAT INDEX
  VSB - VISIBILITY
$$





USA.gov is the U.S. government's official web portal to all federal, state and local government web resources and services.